Find Starlink 34446

NORAD ID: 65495 Int'l Des: 2025-198 Owner: SPXS Country: US Constellation: starlink operational
LEOCIRCULAR

現在のビュー

3D地球を読み込み中...

Starlink 34446について

説明を読み込み中...

次回通過

Passes for default location (London). Set your location on the main map for personalized predictions.

高度履歴

Loading altitude history...

軌道要素

1 65495U 25198D 26149.52261424 .00036100 00000-0 12240-2 0 9993
2 65495 53.1585 255.7043 0001291 54.1215 305.9906 15.30229013 40995
Epoch: May 29, 2026 • Age: 19 hours

現在のステータス

高度 483.5 km
速度 7.62 km/s
衛星直下点 -28.34°S, 127.34°W
打ち上げ日 Sep 5, 2025
運用期間 0.7 years
タイプ internet

技術仕様

分類 Payload
質量 575.00 kg
乾燥質量 530.00 kg
総質量 575.00 kg
長さ 0.30 m
直径 4.10 m
スパン 29.00 m
形状 Box + pan
製造者 SPXS
バスタイプ Starlink V2MO
フェーズステータス In Orbit
所有者/国 SPXS/US

Most Searched